Other Public Products
Issued by NWS Grand Forks, ND

Home | Current Version | Previous Version | Graphics & Text | Print | Product List | Glossary On
Versions: 1 2 3 4 5 6 7 8 9 10 11 12 13 14 15 16 17 18 19 20 21 22 23 24 25 26 27 28 29 30 31 32 33 34 35 36 37 38 39 40 41 42 43 44 45 46 47 48 49 50
421
FPUS83 KFGF 131431
OPUFGF
PRAIRIE TO PINES WEATHER ROUNDUP
NATIONAL WEATHER SERVICE EASTERN NORTH DAKOTA/GRAND FORKS ND
800 AM CST SAT FEB 13 2016

 **SATELLITE DATA USED TO AUGMENT SKY COVER AT AUTOMATED STATIONS**
 *****  WEATHER ACROSS EASTERN NORTH DAKOTA  *****

CITY           SKY/WX    TMP DP  RH WIND       PRES   REMARKS
GRAND FORKS    CLOUDY    -7 -14  71 S8        30.55F WCI -23
GRAND FORKS AF CLOUDY    -8 -14  74 S8        30.53F WCI -24
GRAND CITY NWS NOT AVBL
BUXTON           N/A     -8 -10  88 SE6         N/A  WCI -21
DEVILS LAKE    CLOUDY    -6 -12  75 SE13      30.38F WCI -25
FARGO          CLOUDY    -5 -11  75 SE7       30.56F WCI -19
WAHPETON ARPT  CLOUDY     0  -8  71 SE9       30.56F WCI -16
$$

 *****  WEATHER ACROSS CENTRAL AND WESTERN NORTH DAKOTA  *****

CITY           SKY/WX    TMP DP  RH WIND       PRES   REMARKS
JAMESTOWN      CLOUDY    -1 -10  65 SE14      30.38F WCI -20
BISMARCK       CLOUDY    10  -2  58 SE16      30.26F WCI  -7
MINOT          CLOUDY    11   0  61 SE13      30.21F WCI  -4
MINOT AFB      CLOUDY     9   2  72 SE20      30.20F WCI -10
GARRISON         N/A      9   2  73 SE18      30.19F WCI -10
WILLISTON      CLOUDY    15   9  76 SE13G18   30.05F WCI   1
DICKINSON      LGT SNOW  10   6  84 S22       30.03F FOG     WCI -10
HETTINGER      CLOUDY    13  10  88 SE14G23   30.08F FOG     WCI  -2
$$

 *****  OTHER OBSERVATIONS NORTHEAST NORTH DAKOTA  *****

CITY           SKY/WX    TMP DP  RH WIND       PRES   REMARKS
WALHALLA       FAIR      -8 -13  77 SE13      30.50S WCI -28
LANGDON        FAIR     -13 -18  77 SE14      30.38F WCI -35
CAVALIER       FAIR      -8 -11  84 S9        30.52S WCI -25
GRAFTON        FAIR      -9 -13  84 SE9       30.56F WCI -27
CANDO          FAIR     -13 -18  77 SE14      30.37F WCI -35
FORT TOTTEN      N/A     -5 -13  67 SE12      29.95  WCI -23
ROLLA          FAIR     -11 -17  77 S12       30.30F WCI -31
RUGBY          PTSUNNY    0  -6  78 SE16      30.30F WCI -21
 ***** THE ABOVE OBSERVATIONS ARE NON NWS ARE NOT QUALITY
        CONTROLLED AND MAY MIS-REPORT RAIN FOR SNOW...
$$

 *****  OTHER OBSERVATIONS SOUTHEAST NORTH DAKOTA *****

CITY           SKY/WX    TMP DP  RH WIND       PRES   REMARKS
COOPERSTOWN    NOT AVBL
VALLEY CITY    FAIR      -2  -9  71 SE13      30.45F WCI -21
OAKES          CLOUDY     0  -6  78 SE12      30.44F WCI -18
GWINNER        CLOUDY     1  -6  71 SE16      30.47F WCI -18
SHEYENNE NWR     N/A     -4 -11  72 SE8       29.95S WCI -19
BUFFALO          N/A     -5 -11  75 SE14        N/A  WCI -25
WYNDMERE         N/A     -2  -8  78 SE12        N/A  WCI -20
 ***** THE ABOVE OBSERVATIONS ARE NON NWS ARE NOT QUALITY
       CONTROLLED AND MAY MIS-REPORT RAIN FOR SNOW...
$$

  *****  WEATHER ACROSS NORTHERN MINNESOTA  *****

CITY           SKY/WX    TMP DP  RH WIND       PRES   REMARKS
FLAG ISLAND    CLOUDY   -24 -29  76 SE3       30.53S
WARROAD        CLOUDY   -24 -29  76 CALM      30.54S
ROSEAU         CLOUDY   -24 -29  76 S6        30.54F WCI -40
HALLOCK        CLOUDY   -13 -18  77 SE8       30.54S WCI -30
THF RVR FALLS  CLOUDY   -15 -20  76 SE6       30.55R WCI -29
HALSTAD          N/A     -9 -13  82 SE7         N/A  WCI -24
FOSSTON          N/A    -18 -26  69 SE5       30.52F WCI -31
BAUDETTE       CLOUDY   -28 -33  77 CALM      30.52F
WASKISH        CLOUDY   -20 -27  69 CALM      30.55R
CROOKSTON      CLOUDY   -11 -17  77 SE9       30.57F WCI -29
$$
  *****  WEATHER ACROSS CENTRAL AND WEST MINNESOTA  *****

CITY           SKY/WX    TMP DP  RH WIND       PRES   REMARKS
BEMIDJI        PTCLDY   -24 -30  75 CALM      30.52F
PARK RAPIDS    CLOUDY   -19 -25  73 CALM      30.52F
WADENA         CLOUDY   -17 -20  83 CALM      30.54S
DETROIT LAKES  CLOUDY   -13 -17  84 SE3       30.53S
MOORHEAD       CLOUDY    -6 -11  77 SE9       30.56S WCI -22
FERGUS FALLS   CLOUDY    -8 -13  77 SE10      30.59F WCI -26
ELBOW LAKE     FAIR      -6 -12  75 E9        30.55F WCI -23
MORRIS MN      CLOUDY    -4  -9  77 SE10      30.55F WCI -21
STAPLES        CLOUDY   -18 -24  76 CALM      30.56R
WHEATON        CLOUDY     0  -6  78 SE10      30.58S WCI -17
$$
  *****  WEATHER ELSEWHERE ACROSS MINNESOTA  *****

CITY           SKY/WX    TMP DP  RH WIND       PRES   REMARKS
DULUTH         CLEAR    -16 -22  74 NW6       30.51R WCI -31
INTRNTL FALLS  CLOUDY   -28 -33  77 CALM      30.54S
ELY            CLOUDY   -24 -29  76 CALM      30.52S
CLOQUET        CLOUDY   -15 -24  64 NW6       30.54R WCI -29
BRAINERD       CLOUDY   -21 -25  81 CALM      30.57R
HIBBING        CLOUDY   -26 -31  77 NW7       30.53S WCI -44
ALEXANDRIA     CLOUDY   -10 -15  78 SE6       30.55S WCI -23
SAINT CLOUD    CLOUDY   -12 -17  78 CALM      30.61F
MINNEAPOLIS    CLOUDY    -6 -13  71 W5        30.64S WCI -17
$$

  *****  WEATHER ACROSS SOUTH DAKOTA  *****

CITY           SKY/WX    TMP DP  RH WIND       PRES   REMARKS
SIOUX FALLS    CLOUDY     2  -7  66 SE12      30.54R WCI -15
BROOKINGS      CLOUDY    -1  -8  72 SE12      30.49S WCI -18
WATERTOWN      CLOUDY     0 -10  63 SE12      30.45F WCI -17
HURON          CLOUDY     7  -2  66 SE18      30.44F WCI -12
SISSETON         N/A     -2  -8  76 S12       30.53F WCI -20
ABERDEEN       CLOUDY     7  -6  55 SE13      30.45F WCI  -9
MITCHELL       CLOUDY     8   0  69 SE16      30.49S WCI -10
PIERRE         CLOUDY    14   9  80 SE20      30.27F WCI  -3
MOBRIDGE       CLOUDY    10   1  67 SE21G26   30.22F WCI  -9
RAPID CITY     CLOUDY    30  28  92 SE8       30.01F WCI  22
$$

  *****  SOME WEATHER IN NEARBY STATES *****

CITY           SKY/WX    TMP DP  RH WIND       PRES   REMARKS
GLASGOW MT     CLEAR     17  13  84 E16       29.87F WCI   2
GREAT FALLS MT MOCLDY    41  35  79 SW17      29.87F
CHEYENNE WY    CLEAR     37  20  50 W6        30.05F
SCOTTSBLUFF NE PTCLDY    30  28  92 SE9       30.07F WCI  22
OMAHA NE       CLOUDY    10   1  67 E9        30.61F WCI  -3
DES MOINES IA  CLOUDY     4  -4  69 W3        30.66R
DAVENPORT IA   CLEAR      3  -7  63 NW8       30.64R WCI -10
CHICAGO IL     MOSUNNY    4  -9  55 NW12      30.57R WCI -12
EAU CLAIRE WI  PTCLDY   -10 -18  67 W6        30.62R WCI -23
LA CROSSE WI   CLOUDY    -5 -16  59 N3        30.65R
$$

  *****  SOME NATIONAL WEATHER *****

CITY           SKY/WX    TMP DP  RH WIND       PRES   REMARKS
LA GUARDIA NY  FAIR      23   5  46 NW21      29.99R WCI   8
RALEIGH NC     FAIR      29   6  38 N9        30.28R WCI  20
ATLANTA GA     SUNNY     31  11  43 NW21      30.33R WCI  18
NEW ORLEANS LA MOSUNNY   52  30  43 E16       30.42R
OKLAHOMA CITY  PTCLDY    31  20  63 E13       30.43R WCI  21
ALBUQUERQUE NM PTCLDY    37  21  52 N7        30.31R
SALT LAKE CITY FOG       29  27  92 CALM      30.29F VSB 1
LOS ANGELES CA MOCLDY    52  51  97 CALM      30.09R FOG
BOISE ID       PTCLDY    31  30  96 NW3       30.28R FOG
SEATTLE WA     MOCLDY    45  41  86 S14       30.28R
$$

*** WEATHER ACROSS MANITOBA...SASKATCHEWAN AND ONTARIO ***
                ***ONTARIO***

CITY           SKY/WX    TMP DP  RH WIND       PRES   REMARKS
GERALDTON      CLEAR    -18 -24  76 NW9       30.37R WCI -38
THUNDER BAY    PTCLDY   -15 -22  70 W9        30.55R WCI -33
SIOUX LOOKOUT  PTCLDY   -24 -29  76 VRB2      30.48R
TORONTO        MOSUNNY  -13 -24  58 N13       30.34R WCI -34
BIG TROUT LK   CLEAR    -22 -27  76 W5        30.41R WCI -36
PICKLE LAKE    CRYSTALS -22 -29  69 W8        30.40R WCI -41
DRYDEN         MOCLDY   -22 -27  76 W8        30.48S WCI -41
KENORA         PTCLDY   -22 -26  83 VRB2      30.49F
$$
                *** MANITOBA***

CITY           SKY/WX    TMP DP  RH WIND       PRES   REMARKS
BRANDON        MOCLDY   -18 -24  76 E8        30.35S WCI -37
DAUPHIN        CLEAR    -22 -27  76 CALM      30.34F
ISLAND LAKE    PTCLDY   -22 -29  69 VRB2      30.45
PILOT MOUND      N/A    -17 -22  76 SE9         N/A  WCI -36
THE PAS        CLOUDY   -15 -22  70 SE15      30.25F WCI -38
THOMPSON       MOCLDY   -26 -33  68 S2        30.36F
WINNIPEG       CRYSTALS -15 -20  76 S10       30.53F WCI -35
LYNN LAKE      CLEAR    -20 -26  76 SE8       30.16F WCI -39
CHURCHILL      MOCLDY   -17 -22  76 SW5       30.34F WCI -29
$$
                ***SASKATCHEWAN***

CITY           SKY/WX    TMP DP  RH WIND       PRES   REMARKS
ESTEVAN        LGT SNOW  10   7  85 SE20G26   30.07F DRFTSNOWWCI  -8
KINDERSLEY     CLOUDY    16  14  93 E5        29.72F WCI   9
LLOYDMINSTER   FRZ DRZL  10   9  92 E7        29.79S FOG     WCI   0
PRINCE ALBERT  CLOUDY     3  -4  72 E7        29.95F WCI  -9
REGINA         FLURRIES  10   7  85 SE26G33   29.96  WCI -11
YORKTON        MOCLDY    -2  -9  71 SE22G29   30.12F WCI -26
N. BATTLEFORD  CLOUDY    14  10  85 SE15      29.86R WCC1F1C2F2C3F3C4F4C5F5C6F6C7F7C8F8C9F9CaFaCbFbCcFcCdFdCe!



USA.gov is the U.S. government's official web portal to all federal, state and local government web resources and services.